Hourly Data Report for November 27, 2021

QUALICUM BEACH AIRPORT
BRITISH COLUMBIA
Current Station Operator: ECCC - MSC

49°20'14.000" N
124°23'38.000" W
58.20 m
1026562
71766
VOQ

Download Data

Hourly Data (November 2021)
Hourly Data Report for November 27, 2021
TIME
LST
Temp Definition
°C
Dew Point Definition
°C
Rel Hum Definition
%
Precip. Amount Definition
mm

Wind Dir Definition
10's deg

Wind Spd Definition
km/h
Visibility Definition
km
Stn Press Definition
kPa
Hmdx Definition


Wind Chill Definition


Weather Definition


00:00 4.0 3.5 97 0.0 26 2   101.54     LegendNANA
01:00 4.0 3.5 97 0.0 0 1   101.47     LegendNANA
02:00 3.9 3.4 97 0.0 0 1   101.41     LegendNANA
03:00 5.0 4.5 97 0.0 18 6   101.36     LegendNANA
04:00 5.3 4.3 93 0.0 16 2   101.24     LegendNANA
05:00 6.7 5.7 94 0.0 13 13   101.12     LegendNANA
06:00 7.2 6.2 93 0.4 12 15   101.00     LegendNANA
07:00 7.3 5.9 91 0.8 12 19   100.90     LegendNANA
08:00 7.3 6.0 92 0.7 13 23   100.76     LegendNANA
09:00 7.3 6.1 92 0.3 12 19   100.79     LegendNANA
10:00 7.4 6.4 93 1.3 12 16   100.83     LegendNANA
11:00 7.6 6.7 94 1.2 12 16   100.79     LegendNANA
12:00 7.9 7.1 94 1.8 13 16   100.70     LegendNANA
13:00 7.9 7.1 95 2.9 13 13   100.66     LegendNANA
14:00 8.0 7.3 96 3.4 12 11   100.53     LegendNANA
15:00 8.1 7.5 96 1.8 13 15   100.37     LegendNANA
16:00 8.2 7.4 95 1.0 14 15   100.29     LegendNANA
17:00 8.4 7.6 95 0.4 13 13   100.22     LegendNANA
18:00 8.4 7.5 95 0.2 13 11   100.21     LegendNANA
19:00 8.2 7.5 95 0.4 26 2   100.19     LegendNANA
20:00 7.9 7.3 96 0.4 27 4   100.26     LegendNANA
21:00 7.7 7.1 96 0.4 28 4   100.26     LegendNANA
22:00 7.1 6.4 95 0.6 30 9   100.32     LegendNANA
23:00 7.0 6.3 95 0.9 30 9   100.34     LegendNANA

Notes on Data Quality.

Legend

  • E = Estimated
  • M = Missing
  • NA = Not Available*
  • [empty] = Indicates an unobserved value
Date modified: